Volver al catálogo

STARLINK-34692

ActivoComunicacionesVLEO
NORAD 65759·PAYLOAD·🇺🇸 United States

Lanzado Sep 25, 2025 desde Cape Canaveral Space Force Station

Loading…

Próximos Pases (próximas 24 horas)

TLE

ActualizadoSource: CelesTrak SupGP

Época: Sep 15, 2026, 03:25 UTC

1 65759C 25216AB  26258.14284722 -.00013557  00000+0 -40057-3 0  2580
2 65759  53.1580 170.5055 0001369  87.8330 266.1738 15.34394838    19

Sigue STARLINK-34692 en tiempo real con AllMySat

Download on the App Store